Terminal Aerodrome Forecast
Issued by NWS

Home | Current Version | Previous Version | Text Only | Print | Product List | Glossary On
Versions: 1 2 3 4 5 6 7 8 9 10 11 12 13 14 15 16 17 18
000
FTUS46 KMTR 051000 AAA
TAFSJC
TAF AMD
KSJC 051037Z 0511/0606 14005KT P6SM SKC
      TEMPO 0512/0514 BKN013
     FM051800 30005KT P6SM SKC
     FM052300 31014KT P6SM SKC
     FM060300 31006KT P6SM SKC=

USA.gov is the U.S. government's official web portal to all federal, state and local government web resources and services.